Norfolk, NE

6:01 AM CDT on July 22, 2017 (GMT -0500)
Stefan Memorial

Weather History for KOFK - November, 2012

Change the Weather History Date:

Monday, November 5, 2012

  Actual Average Record
Temperature  
Mean Temperature 39 °F 42 °F  
Max Temperature 41 °F 54 °F 82 °F (1909)
Min Temperature 36 °F 31 °F 11 °F (1959)
Degree Days  
Heating Degree Days 26 23  
Month to date heating degree days 124 109  
Since 1 July heating degree days 766 694  
Cooling Degree Days 0 0  
Month to date cooling degree days 0 0  
Year to date cooling degree days 1373 915  
Moisture  
Dew Point 33 °F    
Average Humidity 84    
Maximum Humidity 92    
Minimum Humidity 76    
Precipitation  
Precipitation T in 0.05 in 2.03 in (2000)
Month to date precipitation 0.04 0.25  
Year to date precipitation 12.98 25.54  
Snow  
Snow 0.00 in 0.00 in - ()
Month to date snowfall 0.0 0.4  
Since 1 July snowfall T 1.2  
Snow Depth 0.00 in    
Sea Level Pressure  
Sea Level Pressure 30.15 in    
Wind  
Wind Speed 11 mph (NNW)    
Max Wind Speed 22 mph    
Max Gust Speed 28 mph    
Visibility 8 miles    
Events      
T = Trace of Precipitation, MM = Missing Value Source: NWS Daily Summary

Daily Weather History Graph

Daily Weather History Graph

Search for Another Location

Airport or City:

Trip Planner

Search our weather history database for the weather conditions in past years. The results will help you decide how hot, cold, wet, or windy it might be!

Date:

Astronomy

Nov. 05, 2012 Rise Set
Actual Time 7:07 AM CST 5:18 PM CST
Civil Twilight 6:38 AM CST 5:47 PM CST
Nautical Twilight 6:05 AM CST 6:20 PM CST
Astronomical Twilight 5:32 AM CST 6:53 PM CST
Moon 10:57 PM CST (11/5) 12:28 PM CST (11/5)
Length of Visible Light 11h 08m
Length of Day
10h 10m
Waning Gibbous, 62% of the Moon is Illuminated
Nov 5
Waning Gibbous
Nov 6
Last Quarter
Nov 13
New
Nov 20
First Quarter
Nov 28
Full

Hourly Weather History & Observations

Time (CST) Temp. Windchill Dew Point Humidity Pressure Visibility Wind Dir Wind Speed Gust Speed Precip Events Conditions
12:56 AM 39.0 °F 29.9 °F 37.0 °F 93% 30.12 in 5.0 mi NNW 17.3 mph - N/A   Overcast
1:56 AM 39.0 °F 29.9 °F 36.0 °F 89% 30.13 in 6.0 mi NNW 17.3 mph - N/A   Overcast
2:56 AM 37.9 °F 29.6 °F 35.1 °F 89% 30.14 in 6.0 mi NNW 13.8 mph - N/A   Overcast
3:56 AM 37.0 °F 28.5 °F 35.1 °F 93% 30.14 in 9.0 mi NNW 13.8 mph - N/A   Overcast
4:56 AM 37.0 °F 28.1 °F 34.0 °F 89% 30.16 in 9.0 mi NNW 15.0 mph - N/A   Overcast
5:56 AM 36.0 °F 26.0 °F 33.1 °F 89% 30.18 in 8.0 mi NNW 17.3 mph 24.2 mph N/A   Overcast
6:56 AM 36.0 °F 28.0 °F 33.1 °F 89% 30.19 in 7.0 mi NNW 11.5 mph - N/A   Overcast
7:56 AM 36.0 °F 27.1 °F 33.1 °F 89% 30.20 in 8.0 mi North 13.8 mph - N/A   Overcast
8:56 AM 37.0 °F 28.9 °F 33.1 °F 86% 30.22 in 6.0 mi NNW 12.7 mph - N/A   Overcast
9:16 AM 37.4 °F 29.3 °F 32.0 °F 81% 30.18 in 8.0 mi North 12.7 mph - N/A   Overcast
9:56 AM 37.0 °F 29.3 °F 33.1 °F 86% 30.23 in 5.0 mi NNW 11.5 mph - N/A   Overcast
10:22 AM 37.4 °F 29.8 °F 33.8 °F 87% 30.19 in 4.0 mi North 11.5 mph - N/A   Overcast
10:56 AM 37.9 °F 30.9 °F 33.1 °F 83% 30.22 in 5.0 mi North 10.4 mph - N/A   Haze
11:56 AM 39.0 °F 30.6 °F 33.1 °F 79% 30.22 in 9.0 mi North 15.0 mph - N/A   Overcast
12:33 PM 39.2 °F 31.6 °F 32.0 °F 75% 30.16 in 10.0 mi North 12.7 mph 21.9 mph N/A   Overcast
12:56 PM 39.9 °F 32.1 °F 32.0 °F 73% 30.19 in 10.0 mi North 13.8 mph - N/A   Overcast
1:56 PM 39.9 °F 35.8 °F 32.0 °F 73% 30.17 in 10.0 mi NNW 5.8 mph - N/A   Overcast
2:56 PM 39.9 °F 35.8 °F 32.0 °F 73% 30.16 in 10.0 mi NW 5.8 mph - N/A   Overcast
3:56 PM 39.9 °F 37.8 °F 32.0 °F 73% 30.15 in 10.0 mi NNW 3.5 mph - N/A   Overcast
4:56 PM 39.0 °F 36.8 °F 32.0 °F 76% 30.14 in 10.0 mi SSE 3.5 mph - N/A   Overcast
5:56 PM 39.0 °F 36.8 °F 32.0 °F 76% 30.14 in 10.0 mi SW 3.5 mph - N/A   Overcast
6:56 PM 39.0 °F 34.0 °F 32.0 °F 76% 30.13 in 10.0 mi South 6.9 mph - N/A   Overcast
7:56 PM 37.9 °F 32.7 °F 32.0 °F 79% 30.10 in 10.0 mi SSE 6.9 mph - N/A   Scattered Clouds
8:56 PM 37.9 °F 32.1 °F 32.0 °F 79% 30.08 in 10.0 mi SSE 8.1 mph - N/A   Mostly Cloudy
9:56 PM 37.9 °F 31.5 °F 32.0 °F 79% 30.06 in 9.0 mi South 9.2 mph - N/A   Overcast
10:56 PM 37.9 °F 32.1 °F 32.0 °F 79% 30.06 in 9.0 mi South 8.1 mph - N/A   Overcast
11:56 PM 36.0 °F 26.7 °F 32.0 °F 86% 29.98 in 9.0 mi South 15.0 mph 23.0 mph 0.00 in   Scattered Clouds